User: anonymous   Login
Location: Fort Wayne
(41.1310°N, 85.1290°W)
Time: 11:05:49
(UTC-04:00)
Language:

Cosmos 1953 - Orbit

View from above orbital plane
View from above orbital plane
View from above satellite
View from above satellite

Ground track
Ground track

The orbit data is extracted from the following two-line orbital elements,

1 19210U 88050A   17086.52744915 +.00000523 +00000-0 +34620-4 0  9992
2 19210 082.5142 112.5614 0013546 170.8032 189.3446 15.05176136544426
Epoch (UTC): 27 March 2017 12:39:31
Eccentricity: 0.0013546
inclination: 82.5142°
perigee height: 541 km
apogee height: 560 km
right ascension of ascending node: 112.5614°
argument of perigee: 170.8032°
revolutions per day: 15.05176136
mean anomaly at epoch: 189.3446°
orbit number at epoch: 54442

The dashed part of the orbit path shows where the satellite is in the earth's shadow,  

DLR